This is the latest recevied weather packets stored in our database for station/object WX4SGA. If no packets are shown the sender has not sent any weather packets the latest 10 day(s).
| Time | Temp. | Humidity | Pressure | Rain* | Wind** | Luminosity | Snow |
|---|---|---|---|---|---|---|---|
| 1777459123 | 20° C | 84% | 1017.6 hPa | 0 mm | - | 0 W/m² | - |
| 1777458820 | 20° C | 83% | 1017.6 hPa | 0 mm | - | 0 W/m² | - |
| 1777458517 | 20° C | 83% | 1017.6 hPa | 0 mm | - | 0 W/m² | - |
| 1777458214 | 20° C | 83% | 1017.6 hPa | 0 mm | - | 0 W/m² | - |
| 1777457908 | 20° C | 83% | 1017.6 hPa | 0 mm | - | 0 W/m² | - |
| 1777457605 | 20° C | 83% | 1017.3 hPa | 0 mm | - | 0 W/m² | - |
| 1777457300 | 20° C | 83% | 1017.3 hPa | 0 mm | - | 0 W/m² | - |
| 1777456996 | 20° C | 84% | 1016.9 hPa | 0 mm | - | 0 W/m² | - |
| 1777456691 | 20° C | 84% | 1016.9 hPa | 0 mm | - | 0 W/m² | - |
| 1777456386 | 19.44° C | 85% | 1016.9 hPa | 0 mm | - | 0 W/m² | - |
| 1777456083 | 18.89° C | 88% | 1016.3 hPa | 0 mm | - | 0 W/m² | - |
| 1777455779 | 18.89° C | 88% | 1015.6 hPa | 0 mm | - | 0 W/m² | - |
| 1777455476 | 18.89° C | 88% | 1015.2 hPa | 0 mm | - | 0 W/m² | - |
| 1777455172 | 18.33° C | 89% | 1014.6 hPa | 0 mm | - | 0 W/m² | - |
| 1777454869 | 18.33° C | 89% | 1014.2 hPa | 0 mm | - | 0 W/m² | - |
| 1777454565 | 18.33° C | 88% | 1013.9 hPa | 0 mm | - | 0 W/m² | - |
| 1777454261 | 18.89° C | 88% | 1013.9 hPa | 0 mm | - | 0 W/m² | - |
| 1777453959 | 18.89° C | 88% | 1013.9 hPa | 0 mm | - | 0 W/m² | - |
| 1777453656 | 18.89° C | 87% | 1013.9 hPa | 0 mm | - | 0 W/m² | - |
| 1777453353 | 18.89° C | 87% | 1013.5 hPa | 0 mm | - | 0 W/m² | - |
| 1777453050 | 18.89° C | 87% | 1013.5 hPa | 0 mm | - | 0 W/m² | - |
| 1777452747 | 18.89° C | 86% | 1013.9 hPa | 0 mm | - | 0 W/m² | - |
| 1777452443 | 18.89° C | 86% | 1013.9 hPa | 0 mm | - | 0 W/m² | - |
| 1777452139 | 18.89° C | 86% | 1013.9 hPa | 0 mm | - | 0 W/m² | - |
| 1777451834 | 19.44° C | 85% | 1013.5 hPa | 0 mm | - | 0 W/m² | - |
* Rain latest hour (hover to see other rain measurements)
** Current wind speed in m/s (hover to see current wind gust speed)